Location: Marne
(34.0056°N, 117.9064°W)
Time: 15:29:30
(UTC+00:00)

Cosmos 1125 Rocket - Pass Details

Date: 18 January 2020
Orbit: 757 x 780 km, 74.0° (Epoch: 24 February)

Event Time Altitude Azimuth Distance (km) Brightness Sun altitude
Rises 01:27:48 0° 181° (S) 3,197 7.0 -4.8°
Reaches altitude 10° 01:30:13 10° 176° (S) 2,275 6.2 -5.2°
Maximum altitude 01:35:10 48° 102° (ESE) 984 3.8 -6.2°
Drops below altitude 10° 01:40:08 10° 29° (NNE) 2,290 5.5 -7.1°
Sets 01:42:34 0° 24° (NNE) 3,221 6.3 -7.6°
